FW9312 Weather Reports


time (UTC)temp
C
wind
direction
speed
KPH
gust
KPH
rain 1hr
cm
rain 24hr
cm
rain mn
cm
humidity
%
barometer
mb
20260507140526 16 351 3.2 4.8 0.00 0.00 0.00 47 1013.1
20260507140023 15 122 1.6 1.6 0.00 0.00 0.00 47 1013.3
20260507135520 14 112 1.6 3.2 0.00 0.00 0.00 48 1013.5
20260507135017 14 83 3.2 3.2 0.00 0.00 0.00 47 1013.6
20260507134514 14 357 1.6 1.6 0.00 0.00 0.00 49 1013.5
20260507134009 13 264 0.0 1.6 0.00 0.00 0.00 48 1013.7
20260507133506 13 273 3.2 3.2 0.00 0.00 0.00 48 1013.5
20260507133004 14 48 0.0 1.6 0.00 0.00 0.00 50 1013.7
20260507132500 13 273 0.0 1.6 0.00 0.00 0.00 53 1013.6
20260507131956 13 35 1.6 1.6 0.00 0.00 0.00 51 1013.7
20260507131454 13 260 0.0 1.6 0.00 0.00 0.00 53 1013.6
20260507130950 13 260 1.6 1.6 0.00 0.00 0.00 52 1013.6
20260507130447 13 37 0.0 0.0 0.00 0.00 0.00 53 1013.8
20260507125946 13 50 0.0 1.6 0.00 0.00 0.00 54 1013.8
20260507125444 13 252 1.6 1.6 0.00 0.00 0.00 52 1013.7
20260507124941 12 247 0.0 0.0 0.00 0.00 0.00 54 1013.6
20260507124437 12 290 1.6 1.6 0.00 0.00 0.00 55 1013.5
20260507123936 12 297 1.6 1.6 0.00 0.00 0.00 55 1013.7
20260507123433 12 275 0.0 0.0 0.00 0.00 0.00 56 1013.6
20260507122929 12 254 0.0 0.0 0.00 0.00 0.00 57 1013.7
20260507122424 12 130 3.2 3.2 0.00 0.00 0.00 55 1013.6
20260507121921 12 296 0.0 0.0 0.00 0.00 0.00 55 1013.4
20260507121416 12 276 1.6 1.6 0.00 0.00 0.00 56 1013.5
20260507120913 12 282 0.0 0.0 0.00 0.00 0.00 57 1013.4
20260507120409 12 285 0.0 0.0 0.00 0.00 0.00 57 1013.4
20260507115906 12 359 0.0 0.0 0.00 0.00 0.00 59 1013.5
20260507115402 12 4 0.0 1.6 0.00 0.00 0.00 59 1013.5
20260507114857 12 13 0.0 0.0 0.00 0.00 0.00 58 1013.3
20260507114354 12 10 0.0 0.0 0.00 0.00 0.00 58 1013.2
20260507113852 12 12 0.0 0.0 0.00 0.00 0.00 59 1013.5
20260507113349 12 7 0.0 0.0 0.00 0.00 0.00 57 1013.2
20260507112846 12 8 0.0 1.6 0.00 0.00 0.00 58 1013.4
20260507112343 12 6 0.0 0.0 0.00 0.00 0.00 57 1013.4
20260507111841 11 270 0.0 1.6 0.00 0.00 0.00 56 1013.4
20260507111338 11 298 0.0 1.6 0.00 0.00 0.00 59 1013.2
20260507110833 11 243 0.0 0.0 0.00 0.00 0.00 60 1013.4
20260507110330 12 245 0.0 0.0 0.00 0.00 0.00 60 1013.4
20260507105827 12 247 0.0 0.0 0.00 0.00 0.00 59 1013.3
20260507105324 12 243 0.0 0.0 0.00 0.00 0.00 59 1013.1
20260507104820 11 148 1.6 1.6 0.00 0.00 0.00 61 1013.1
20260507104317 11 104 0.0 0.0 0.00 0.00 0.00 62 1013.0
20260507103813 11 100 0.0 0.0 0.00 0.00 0.00 63 1012.8
20260507103309 11 88 0.0 1.6 0.00 0.00 0.00 63 1012.8
20260507102806 11 77 0.0 0.0 0.00 0.00 0.00 63 1012.8
20260507102306 11 88 0.0 1.6 0.00 0.00 0.00 64 1012.8
20260507101759 11 57 0.0 0.0 0.00 0.00 0.00 64 1012.7
20260507101254 11 24 0.0 0.0 0.00 0.00 0.00 64 1012.6
20260507100751 11 348 0.0 0.0 0.00 0.00 0.00 63 1012.6
20260507100249 11 3 0.0 0.0 0.00 0.00 0.00 65 1012.4
20260507095747 12 358 0.0 0.0 0.00 0.00 0.00 67 1012.3
20260507095243 12 47 0.0 0.0 0.00 0.00 0.00 68 1012.0
20260507094740 12 125 0.0 0.0 0.00 0.00 0.00 71 1012.3
20260507094237 12 88 0.0 0.0 0.00 0.00 0.00 71 1012.2
20260507093734 12 74 0.0 0.0 0.00 0.00 0.00 72 1012.2
20260507093233 12 11 0.0 0.0 0.00 0.00 0.00 73 1012.1
20260507092730 12 89 0.0 1.6 0.00 0.00 0.00 74 1012.3
20260507092226 12 135 0.0 0.0 0.00 0.00 0.00 75 1012.3
20260507091722 12 129 0.0 0.0 0.00 0.00 0.00 75 1012.3
20260507091219 12 85 0.0 0.0 0.00 0.00 0.00 74 1012.5
20260507090719 12 84 0.0 0.0 0.00 0.00 0.00 74 1012.4
20260507090216 12 127 1.6 3.2 0.00 0.00 0.00 74 1012.4
20260507085713 12 207 3.2 3.2 0.00 0.00 0.00 73 1012.3
20260507085210 12 235 0.0 0.0 0.00 0.00 0.00 73 1012.3
20260507084707 12 123 1.6 1.6 0.00 0.00 0.00 74 1012.1
20260507084204 12 172 0.0 0.0 0.00 0.00 0.00 74 1012.0
20260507083701 12 307 1.6 1.6 0.00 0.00 0.00 74 1012.0
20260507083158 12 220 0.0 0.0 0.00 0.00 0.00 74 1012.0
20260507082653 12 279 3.2 3.2 0.00 0.00 0.00 73 1012.0
20260507082150 12 226 0.0 0.0 0.00 0.00 0.00 74 1011.9
20260507081647 12 190 0.0 0.0 0.00 0.00 0.00 73 1011.9
20260507081143 12 276 0.0 1.6 0.00 0.00 0.00 73 1012.0
20260507080639 12 188 1.6 1.6 0.00 0.00 0.00 74 1011.6
20260507080136 12 175 0.0 0.0 0.00 0.00 0.00 73 1011.7
20260507075631 12 229 0.0 0.0 0.00 0.00 0.00 73 1011.5
20260507075127 12 143 0.0 0.0 0.00 0.00 0.00 73 1011.5
20260507074624 12 265 0.0 1.6 0.00 0.00 0.00 72 1011.7
20260507074123 13 244 1.6 1.6 0.00 0.00 0.00 71 1011.7
20260507073618 13 141 1.6 1.6 0.00 0.00 0.00 71 1011.5
20260507073115 13 8 1.6 1.6 0.00 0.00 0.00 71 1011.3
20260507072613 13 157 1.6 3.2 0.00 0.00 0.00 72 1011.3
20260507072109 13 218 0.0 0.0 0.00 0.00 0.00 72 1011.4
20260507071607 13 202 1.6 1.6 0.00 0.00 0.00 73 1011.4
20260507071103 13 192 0.0 1.6 0.00 0.00 0.00 73 1011.5
20260507070600 13 70 0.0 1.6 0.00 0.00 0.00 72 1011.7
20260507070058 13 155 0.0 1.6 0.00 0.00 0.00 72 1011.7
20260507065554 13 138 1.6 1.6 0.00 0.00 0.00 71 1011.8
20260507065051 13 141 1.6 1.6 0.00 0.00 0.00 72 1012.1
20260507064549 13 225 1.6 1.6 0.00 0.00 0.00 73 1012.0
20260507064047 13 257 0.0 1.6 0.00 0.00 0.00 74 1011.8
20260507063544 13 263 0.0 1.6 0.00 0.00 0.00 74 1011.8
20260507063041 13 41 1.6 3.2 0.00 0.00 0.00 75 1011.8
20260507062538 13 33 0.0 0.0 0.00 0.00 0.00 75 1012.0
20260507062035 13 273 0.0 0.0 0.00 0.00 0.00 76 1011.9
20260507061533 13 12 0.0 0.0 0.00 0.00 0.00 76 1012.0
20260507061031 13 7 0.0 0.0 0.00 0.00 0.00 77 1012.0
20260507060529 13 87 0.0 0.0 0.00 0.00 0.00 77 1011.9
20260507060025 13 108 0.0 0.0 0.00 0.00 0.00 77 1011.9
20260507055520 13 64 3.2 3.2 0.00 0.00 0.00 77 1012.0
20260507055016 13 155 0.0 1.6 0.00 0.00 0.00 78 1011.8
20260507054512 13 235 0.0 0.0 0.00 0.00 0.00 78 1011.6
20260507054009 13 231 0.0 0.0 0.00 0.00 0.00 77 1011.5
20260507053508 13 212 0.0 0.0 0.00 0.00 0.00 77 1011.6
20260507053006 13 254 1.6 1.6 0.00 0.00 0.00 77 1011.7
20260507052503 13 175 1.6 1.6 0.00 0.00 0.00 77 1011.6
20260507051959 13 220 0.0 0.0 0.00 0.00 0.00 77 1011.8
20260507051457 13 214 0.0 0.0 0.00 0.00 0.00 77 1011.7
20260507050954 13 96 1.6 3.2 0.00 0.00 0.00 78 1011.6
20260507050450 13 76 0.0 1.6 0.00 0.00 0.00 78 1011.7
20260507045947 13 88 3.2 3.2 0.00 0.00 0.00 79 1011.7
20260507045444 13 35 1.6 4.8 0.00 0.00 0.00 80 1011.8
20260507044941 13 135 0.0 0.0 0.00 0.00 0.00 81 1011.7
20260507044438 13 102 0.0 0.0 0.00 0.00 0.00 80 1011.5
20260507043934 14 135 0.0 0.0 0.00 0.00 0.00 81 1011.5
20260507043430 14 140 0.0 0.0 0.00 0.00 0.00 81 1011.6
20260507042927 14 29 0.0 0.0 0.00 0.00 0.00 81 1011.8
20260507042424 14 195 1.6 1.6 0.00 0.00 0.00 81 1011.6
20260507041919 14 198 0.0 0.0 0.00 0.00 0.00 81 1011.8
20260507041416 14 216 0.0 0.0 0.00 0.00 0.00 80 1011.8
20260507040914 15 278 3.2 4.8 0.00 0.00 0.00 80 1011.2
20260507040409 15 215 1.6 1.6 0.00 0.00 0.00 81 1011.6
20260507035905 15 99 1.6 1.6 0.00 0.38 0.38 81 1011.2
20260507035402 15 333 0.0 1.6 0.00 0.38 0.38 81 1011.3
20260507034859 15 100 0.0 1.6 0.00 0.38 0.38 81 1011.3
20260507034355 15 225 0.0 0.0 0.00 0.38 0.38 81 1011.3
20260507033853 15 298 3.2 3.2 0.00 0.38 0.38 80 1011.2
20260507033351 15 231 1.6 1.6 0.00 0.38 0.38 80 1011.3
20260507032848 15 267 1.6 1.6 0.00 0.38 0.38 79 1011.4
20260507032345 15 177 1.6 1.6 0.00 0.38 0.38 80 1011.2
20260507031841 15 230 3.2 3.2 0.00 0.38 0.38 80 1011.2
20260507031338 15 256 0.0 0.0 0.00 0.38 0.38 79 1011.2
20260507030834 15 219 1.6 1.6 0.00 0.38 0.38 79 1011.2
20260507030332 15 273 0.0 1.6 0.00 0.38 0.38 79 1011.2
20260507025828 15 225 1.6 1.6 0.00 0.38 0.38 78 1011.1
20260507025326 15 243 1.6 3.2 0.00 0.38 0.38 79 1011.0
20260507024824 15 215 1.6 1.6 0.00 0.38 0.38 79 1010.8
20260507024321 15 273 3.2 3.2 0.00 0.38 0.38 78 1010.8
20260507023816 15 258 3.2 3.2 0.00 0.38 0.38 78 1010.9
20260507023313 15 287 0.0 1.6 0.00 0.38 0.38 78 1010.9
20260507022810 15 202 0.0 1.6 0.00 0.38 0.38 78 1011.0
20260507022307 16 290 1.6 1.6 0.00 0.38 0.38 78 1010.9
20260507021803 16 280 3.2 3.2 0.00 0.38 0.38 79 1010.8
20260507021259 16 230 1.6 1.6 0.00 0.38 0.38 79 1010.8
20260507020757 16 240 1.6 1.6 0.00 0.38 0.38 80 1010.7
20260507020253 16 277 1.6 1.6 0.00 0.38 0.38 80 1010.6
20260507015751 16 5 3.2 4.8 0.00 0.38 0.38 82 1010.8
20260507015248 16 89 1.6 1.6 0.00 0.38 0.38 82 1010.7
20260507014745 16 126 0.0 0.0 0.00 0.38 0.38 81 1010.9
20260507014241 16 21 1.6 1.6 0.00 0.38 0.38 81 1010.8
20260507013738 16 48 1.6 3.2 0.00 0.38 0.38 82 1010.5
20260507013235 16 123 0.0 0.0 0.00 0.38 0.38 83 1010.4
20260507012732 16 152 0.0 0.0 0.00 0.38 0.38 82 1010.4
20260507012228 17 146 0.0 1.6 0.00 0.38 0.38 81 1010.4
20260507011726 16 226 1.6 1.6 0.00 0.38 0.38 79 1010.3
20260507011222 17 247 0.0 0.0 0.00 0.38 0.38 81 1010.4
20260507010721 17 190 1.6 1.6 0.00 0.38 0.38 81 1010.6
20260507010218 17 238 1.6 1.6 0.00 0.38 0.38 81 1010.8
20260507005715 17 191 1.6 1.6 0.00 0.38 0.38 81 1010.9
20260507005211 17 309 1.6 1.6 0.00 0.38 0.38 83 1010.5
20260507004708 17 237 1.6 1.6 0.00 0.38 0.38 84 1010.6
20260507004206 17 265 0.0 0.0 0.00 0.38 0.38 85 1010.3
20260507003702 17 241 1.6 3.2 0.00 0.38 0.38 83 1010.1
20260507003157 17 225 0.0 0.0 0.00 0.38 0.38 86 1010.4
20260507002653 17 222 0.0 1.6 0.00 0.38 0.38 87 1010.4
20260507002149 17 236 0.0 1.6 0.00 0.38 0.38 88 1010.0
20260507001647 17 287 1.6 3.2 0.00 0.38 0.38 88 1010.0
20260507001144 17 203 0.0 1.6 0.00 0.38 0.38 89 1009.9
20260507000640 18 218 0.0 0.0 0.00 0.38 0.38 90 1009.8
20260507000135 18 215 0.0 0.0 0.00 0.38 0.38 91 1009.6
20260506235633 18 188 0.0 1.6 0.00 0.38 0.38 90 1009.6
20260506235133 18 221 0.0 1.6 0.00 0.38 0.38 90 1009.7
20260506234631 18 227 0.0 1.6 0.00 0.38 0.38 90 1009.4
20260506234128 18 217 0.0 0.0 0.00 0.38 0.38 90 1009.2
20260506233625 18 224 0.0 0.0 0.00 0.38 0.38 89 1008.9
20260506233122 18 213 0.0 0.0 0.00 0.38 0.38 89 1008.8
20260506232618 18 240 0.0 1.6 0.00 0.38 0.38 89 1008.9
20260506232113 18 232 0.0 1.6 0.00 0.38 0.38 88 1008.9
20260506231611 18 220 1.6 1.6 0.00 0.38 0.38 88 1008.7
20260506231109 19 230 1.6 1.6 0.00 0.38 0.38 88 1008.8
20260506230605 19 199 1.6 1.6 0.00 0.38 0.38 87 1008.8
20260506230103 19 230 1.6 1.6 0.79 0.38 0.38 86 1008.7
20260506225559 20 159 0.0 1.6 0.79 0.38 0.38 86 1008.6
20260506225055 20 259 1.6 1.6 0.00 0.25 0.25 86 1008.6
20260506224553 20 240 1.6 3.2 0.00 0.25 0.25 84 1008.6
20260506224049 20 238 0.0 0.0 0.00 0.25 0.25 84 1008.6
20260506223545 20 200 0.0 1.6 0.00 0.25 0.25 84 1008.5
20260506223042 20 222 1.6 1.6 0.00 0.25 0.25 83 1008.4
20260506222539 20 219 1.6 1.6 0.00 0.25 0.25 83 1008.6
20260506222035 21 214 0.0 0.0 0.00 0.25 0.25 83 1008.3
20260506221532 20 224 1.6 1.6 0.00 0.25 0.25 83 1008.4
20260506221030 21 200 3.2 3.2 0.00 0.25 0.25 82 1008.5
20260506220526 21 186 1.6 1.6 0.00 0.25 0.25 83 1008.3
20260506220021 21 231 1.6 1.6 0.00 0.25 0.25 82 1008.3
20260506215519 20 203 1.6 3.2 0.00 0.25 0.25 83 1008.5
20260506215014 20 200 0.0 1.6 0.00 0.25 0.25 84 1008.5
20260506214512 20 188 1.6 3.2 0.00 0.25 0.25 84 1008.7
20260506214009 20 209 0.0 1.6 0.00 0.25 0.25 84 1008.3
20260506213507 20 223 1.6 1.6 0.00 0.25 0.25 85 1008.4
20260506213004 20 227 1.6 1.6 0.00 0.25 0.25 85 1008.3
20260506212500 20 223 1.6 3.2 0.00 0.25 0.25 85 1008.5
20260506211954 20 199 1.6 1.6 0.00 0.25 0.25 86 1008.1
20260506211451 20 198 0.0 0.0 0.00 0.25 0.25 89 1008.0
20260506210948 19 190 1.6 1.6 0.00 0.25 0.25 89 1007.8
20260506210444 19 239 1.6 1.6 0.00 0.25 0.25 90 1008.0
20260506205942 18 162 0.0 1.6 0.13 0.25 0.25 90 1007.8
20260506205438 18 238 1.6 1.6 0.13 0.25 0.25 92 1008.2
20260506204934 18 188 1.6 1.6 0.00 0.23 0.23 92 1008.0
20260506204432 18 218 0.0 0.0 0.00 0.23 0.23 92 1007.9
20260506203929 18 195 0.0 1.6 0.00 0.23 0.23 91 1007.9
20260506203426 18 193 0.0 0.0 0.00 0.23 0.23 91 1007.8
20260506202923 18 172 0.0 0.0 0.00 0.23 0.23 91 1007.7
20260506202420 18 183 1.6 1.6 0.18 0.23 0.23 91 1008.0
20260506201917 18 172 1.6 1.6 0.18 0.23 0.23 91 1007.9
20260506201414 18 188 0.0 0.0 0.00 0.20 0.20 89 1007.9
20260506200911 18 190 1.6 1.6 0.00 0.20 0.20 89 1007.9
20260506200407 18 177 0.0 1.6 0.00 0.20 0.20 88 1008.0
20260506195904 19 169 3.2 3.2 0.00 0.20 0.20 87 1007.9
20260506195401 19 192 1.6 1.6 0.00 0.20 0.20 86 1008.0
20260506194857 19 183 1.6 1.6 0.00 0.20 0.20 86 1008.0
20260506194354 19 205 1.6 1.6 0.00 0.20 0.20 88 1007.9
20260506193852 19 189 1.6 1.6 0.00 0.20 0.20 87 1008.0
20260506193348 19 177 1.6 3.2 0.00 0.20 0.20 88 1008.1
20260506192844 19 185 1.6 3.2 0.00 0.20 0.20 87 1008.1
20260506192341 19 166 3.2 3.2 0.00 0.20 0.20 86 1008.3
20260506191838 19 166 4.8 4.8 0.00 0.20 0.20 86 1007.9
20260506191334 19 190 1.6 3.2 0.00 0.20 0.20 85 1008.1
20260506190832 19 170 4.8 6.4 0.00 0.20 0.20 86 1008.0
20260506190328 19 241 4.8 4.8 0.00 0.20 0.20 85 1008.1
20260506185825 19 169 3.2 3.2 0.00 0.20 0.20 85 1008.0
20260506185322 19 174 1.6 1.6 0.00 0.20 0.20 86 1008.1
20260506184819 19 171 1.6 1.6 0.00 0.20 0.20 86 1008.2
20260506184316 18 216 1.6 3.2 0.00 0.20 0.20 87 1008.1
20260506183814 19 213 1.6 3.2 0.00 0.20 0.20 86 1008.3
20260506183309 19 214 1.6 1.6 0.00 0.20 0.20 86 1008.3
20260506182806 18 191 1.6 1.6 0.00 0.20 0.20 87 1008.2
20260506182306 18 191 3.2 3.2 0.00 0.20 0.20 87 1008.3
20260506181801 18 167 3.2 4.8 0.00 0.20 0.20 88 1008.4
20260506181259 18 187 1.6 1.6 0.00 0.20 0.20 89 1008.3
20260506180755 18 187 0.0 0.0 0.00 0.20 0.20 89 1008.4
20260506180251 18 173 3.2 4.8 0.00 0.20 0.20 89 1008.5
20260506175748 18 206 3.2 3.2 0.00 0.20 0.20 88 1008.4
20260506175245 18 178 1.6 3.2 0.00 0.20 0.20 88 1008.4
20260506174742 18 193 4.8 4.8 0.00 0.20 0.20 89 1008.7
20260506174239 18 192 3.2 4.8 0.00 0.20 0.20 89 1008.5
20260506173737 18 171 3.2 4.8 0.00 0.20 0.20 89 1008.5
20260506173233 18 222 3.2 4.8 0.00 0.20 0.20 89 1008.5
20260506172730 18 206 6.4 9.7 0.00 0.20 0.20 88 1008.5
20260506172227 18 184 3.2 3.2 0.00 0.20 0.20 88 1008.5
20260506171725 18 218 6.4 9.7 0.00 0.20 0.20 88 1008.5
20260506171222 18 197 3.2 4.8 0.00 0.20 0.20 88 1008.5
20260506170719 18 187 4.8 4.8 0.00 0.20 0.20 88 1008.6
20260506170216 18 175 6.4 6.4 0.00 0.20 0.20 89 1008.6
20260506165714 18 207 3.2 4.8 0.00 0.20 0.20 89 1008.7
20260506165211 18 251 3.2 3.2 0.00 0.20 0.20 89 1008.5
20260506164708 18 219 3.2 4.8 0.00 0.20 0.20 90 1008.7
20260506164205 17 226 3.2 6.4 0.00 0.20 0.20 91 1008.6
20260506163701 17 203 8.0 9.7 0.00 0.20 0.20 91 1008.7
20260506163156 17 235 4.8 6.4 0.00 0.20 0.20 92 1008.7
20260506162653 17 246 6.4 9.7 0.00 0.20 0.20 92 1008.8
20260506162150 17 185 4.8 4.8 0.00 0.20 0.20 92 1008.9
20260506161647 17 234 3.2 4.8 0.00 0.20 0.20 93 1008.9
20260506161144 16 226 4.8 6.4 0.00 0.20 0.20 93 1008.7
20260506160642 16 205 3.2 3.2 0.00 0.20 0.20 94 1008.6
20260506160139 16 167 3.2 4.8 0.00 0.20 0.20 95 1008.7
20260506155637 16 228 6.4 6.4 0.00 0.20 0.20 94 1008.8
20260506155134 16 232 6.4 9.7 0.00 0.20 0.20 95 1008.8
20260506153230 16 220 3.2 3.2 0.00 0.20 0.20 95 1008.8
20260506152727 16 209 6.4 9.7 0.00 0.20 0.20 95 1008.9
20260506152224 16 251 6.4 6.4 0.00 0.20 0.20 96 1008.9
20260506151724 16 180 3.2 3.2 0.00 0.20 0.20 96 1008.9
20260506151219 16 211 3.2 4.8 0.00 0.20 0.20 96 1008.9
20260506150716 16 204 3.2 4.8 0.00 0.20 0.20 96 1009.1
20260506150213 16 209 6.4 9.7 0.00 0.20 0.20 96 1009.0
20260506145710 16 178 4.8 6.4 0.00 0.20 0.20 97 1009.0
20260506145206 16 197 4.8 6.4 0.00 0.20 0.20 97 1008.8
20260506144704 16 181 3.2 6.4 0.00 0.20 0.20 97 1009.1
20260506144201 16 242 4.8 4.8 0.00 0.20 0.20 97 1009.2
20260506143659 16 220 4.8 6.4 0.00 0.20 0.20 96 1009.5
20260506143156 16 248 4.8 4.8 0.00 0.20 0.20 97 1009.7
20260506142654 16 240 6.4 6.4 0.00 0.20 0.20 96 1009.6
20260506142152 16 194 3.2 4.8 0.00 0.20 0.20 96 1009.3
20260506141649 16 184 4.8 6.4 0.00 0.20 0.20 96 1009.7
20260506141148 16 241 4.8 6.4 0.00 0.20 0.20 96 1009.4